Location: Amsterdam
(30.7274°N, 84.4357°W)
Time: 17:53:02
(UTC+00:00)

Transit 2A Rocket - Pass Details

Date: 23 February 2026
Orbit: 583 x 900 km, 66.7° (Epoch: 12 March)

Event Time Altitude Azimuth Distance (km) Brightness Sun altitude
Rises 05:24:21 0° 340° (NNW) 3,275 - -68.2°
Reaches altitude 10° 05:26:57 10° 346° (NNW) 2,291 - -68.3°
Maximum altitude 05:32:00 49° 61° (ENE) 906 - -68.6°
Drops below altitude 10° 05:36:34 10° 137° (SE) 2,080 - -68.8°
Sets 05:38:49 0° 143° (SE) 2,944 - -68.9°
